Flag for Saudi Arabia Weather past 2 weeks in Jeddah, Saudi Arabia

Now
93 °F

Sunny.


Feels Like: 95 °F
Forecast: 84 / 98 °F
Wind: 14 mph from Northwest

Location: Jeddah King Abdul Aziz International Airport

Current Time: Sep 18, 2014 at 6:51:55 PM

Latest Report: Sep 18, 2014 at 6:00 PM


Visibility: 10 mi

Pressure: 29.68 "Hg

Humidity: 39%

Dew point: 64 °F

Location of JeddahLocation

Historic Weather in Jeddah — Graph

°F

Jeddah temperature yesterday

Maximum temperature yesterday: 99 °F (at 12:00 PM)
Minimum temperature yesterday: 84 °F (at 1:00 AM)
Average temperature yesterday: 89 °F

Past Weeks' High & Low Weather Summary

 TemperatureHumidityPressure
High100 °F (Sep 8, 12:00 PM)79% (Sep 6, 2:00 AM)29.77 "Hg (Sep 6, 2:00 AM)
Low82 °F (Sep 4, 5:00 AM)29% (Sep 17, 12:00 PM)29.56 "Hg (Sep 3, 5:00 PM)
Average90 °F54%29.69 "Hg
* Reported Sep 3 5:00 PM — Sep 18 5:00 PM, Jeddah, Weather by CustomWeather, © 2014

Note: Actual official high and low records may vary slightly from our data, if they occured in-between our weather recording intervals... More about our weather records

Advertising

Jeddah weather history for previous 24 hours

 ConditionsComfort  
Time TempWeatherWind HumidityBarometerVisibility
5:00 PM
Sep 18
97 °FSunny.18 mph32%29.65 "Hg10 mi
4:00 PM97 °FSunny.17 mph32%29.65 "Hg10 mi
3:00 PM97 °FSunny.15 mph42%29.65 "Hg10 mi
1:00 PM100 °FSunny.13 mph37%29.68 "Hg10 mi
12:00 PM99 °FSunny.12 mph39%29.68 "Hg10 mi
11:00 AM97 °FSunny.12 mph42%29.71 "Hg10 mi
10:00 AM93 °FSunny.9 mph47%29.71 "Hg10 mi
9:00 AM88 °FSunny.7 mph59%29.71 "Hg10 mi
8:00 AM86 °FSunny.9 mph62%29.71 "Hg10 mi
7:00 AM84 °FScattered clouds.7 mph66%29.71 "HgN/A
6:00 AM82 °FPassing clouds.5 mph66%29.71 "HgN/A
5:00 AM84 °FPassing clouds.3 mph62%29.68 "HgN/A
4:00 AM84 °FPassing clouds.7 mph55%29.68 "HgN/A
3:00 AM84 °FPassing clouds.7 mph55%29.68 "HgN/A
2:00 AM84 °FPassing clouds.7 mph55%29.68 "HgN/A
1:00 AM86 °FPassing clouds.7 mph49%29.71 "HgN/A
12:00 AM88 °FPassing clouds.7 mph52%29.71 "HgN/A
11:00 PM
Sep 17
88 °FClear.7 mph52%29.71 "Hg10 mi
10:00 PM88 °FClear.12 mph55%29.74 "Hg10 mi
9:00 PM88 °FClear.7 mph55%29.74 "Hg10 mi
8:00 PM88 °FClear.12 mph49%29.71 "Hg10 mi
7:00 PM90 °FPassing clouds.12 mph52%29.68 "HgN/A
6:00 PM91 °FPassing clouds.12 mph46%29.68 "HgN/A
Weather by CustomWeather, © 2014

See weather overviewHow to use our weather pages